Location: Newsoms
(36.6240°N, 77.1250°W)
Time: 19:03:31
(UTC-05:00)

Daily predictions for brighter satellites

Satellite Brightness Start Highest point End
(mag) Time Altitude Azimuth Time Altitude Azimuth Time Altitude Azimuth
FENGYUN 3A 3.7 18:07:29 10° SSE 18:12:46 60° ENE 18:18:05 10° N
CENTAUR R/B 3.7 18:11:55 10° SSE 18:15:54 19° ESE 18:20:11 10° ENE
YAOGAN 1 2.9 18:19:00 10° S 18:23:18 72° W 18:27:38 10° NNW
IUS-18 SRM-1 3.9 18:22:15 10° SSW 18:23:24 13° S 18:24:43 10° SSE
Okean 1-7 3.4 18:19:21 10° NNW 18:23:45 72° W 18:28:07 10° S
MTI 3.7 18:20:55 10° NNE 18:24:06 78° E 18:27:17 10° S
Cosmos 405 3.9 18:22:22 10° SSE 18:25:19 26° E 18:28:18 10° NE
Cosmos 2333 Rocket 2.2 18:25:13 10° NNW 18:30:54 74° ENE 18:36:31 10° SSE
ORS 1 (USA 231) 4.2 18:28:47 10° WNW 18:31:09 52° NNE 18:33:02 14° E
DELTA 2 R/B (2) 3.2 18:30:05 10° WNW 18:31:46 44° N 18:32:55 17° ENE
Cosmos 1733 Rocket 3.3 18:27:48 10° SSE 18:31:55 47° E 18:36:04 10° NNE
NOSS 0 Rocket 4.0 18:26:05 10° NNW 18:32:14 64° ENE 18:38:22 10° SE
Cosmos 1812 3.9 18:29:14 10° NNE 18:32:17 22° ENE 18:35:19 10° SE
Shenzhou-11 Module 2.3 18:33:07 10° WNW 18:36:03 50° NNE 18:38:21 15° E
Cosmos 1624 Rocket 4.0 18:31:28 10° N 18:36:40 63° ENE 18:41:47 10° SSE
Cosmos 2082 3.8 18:31:35 10° S 18:36:59 52° ESE 18:42:26 10° NNE
COSMOS 2428 3.6 18:31:28 10° NNW 18:37:02 54° WSW 18:42:33 10° S
NOSS 3-2 (A) 3.6 18:32:38 10° SW 18:38:28 77° WNW 18:44:54 10° NNE
ATLAS 3B R/B 3.7 18:33:57 10° SW 18:40:57 48° NW 18:47:42 10° NNE
Iridium 4 Rocket 4.3 18:38:48 10° NNE 18:42:49 24° E 18:46:33 10° SE
ERS-2 2.6 18:41:31 10° SE 18:44:58 39° ENE 18:48:26 10° N
Tiangong 2 2.4 18:44:41 10° NW 18:47:30 28° N 18:49:09 18° NE
DNEPR-1 R/B 3.5 18:44:58 10° SSW 18:49:12 81° WNW 18:53:28 10° NNE
Cosmos 2233 Rocket 4.0 18:45:13 10° N 18:51:32 89° W 18:57:46 10° S
Okean 3 4.0 18:48:34 10° NNE 18:52:22 33° ENE 18:56:10 10° SE
FREGAT/IRIS 2.8 18:50:12 10° SSE 18:53:01 43° ENE 18:55:52 10° N
EO 1 Del DPAF 3.8 18:52:31 10° N 18:56:19 60° WNW 19:00:04 10° SSW
Thor Agena Rocket 3.9 18:52:00 10° NNE 18:56:46 39° E 19:01:27 10° SSE
Lacrosse 4 Rocket 4.5 18:53:49 10° WNW 18:56:48 19° WSW 18:59:50 10° SSW
FengYun 1-2 T 4.1 18:52:17 10° SSE 18:57:45 68° ENE 19:03:13 10° N
Cosmos 1980 3.6 18:53:24 10° NNW 18:59:07 81° ENE 19:04:48 10° SSE
Lacrosse 5 1.8 18:57:49 10° NW 19:02:52 67° NE 19:06:45 17° SE
Cosmos 1633 2.7 19:00:17 10° SSE 19:03:41 45° E 19:07:06 10° NNE
Cosmos 1464 Rocket 4.1 18:59:04 10° N 19:04:57 47° E 19:10:50 10° SSE
Sich 1 Rocket 4.1 19:02:44 10° SSE 19:06:52 36° E 19:10:59 10° NNE
Aureole 3 4.3 19:02:42 10° S 19:09:21 86° E 19:14:38 10° N
Envisat 3.4 19:04:51 10° SE 19:09:31 38° ENE 19:14:12 10° N
ALOS 4.4 19:09:21 10° SSW 19:13:23 29° W 19:17:27 10° NW
SJ-6B 2.7 19:10:04 10° SSE 19:13:42 52° ENE 19:17:24 10° N
Cosmos 1072 Rocket 4.4 19:08:36 10° N 19:14:45 64° E 19:20:57 10° SSE
Cosmos 1782 Rocket 4.2 19:15:27 10° SSE 19:18:48 34° ESE 19:18:48 34° ESE
Cosmos 1378 Rocket 3.6 19:15:18 10° N 19:19:36 52° E 19:23:53 10° SSE
USA 215 3.6 19:16:06 10° NE 19:22:33 64° NW 19:28:58 10° WSW
Meteor 1-14 Rocket 4.3 19:17:50 10° S 19:23:33 86° WNW 19:29:26 10° N
HJ-1C 3.3 19:20:21 10° SSE 19:23:45 90° WSW 19:27:11 10° NNW
SeaSat 1 2.4 19:20:49 18° SE 19:24:27 67° ENE 19:29:21 10° NNW
Abrixas rocket 4.0 19:23:06 10° WNW 19:25:52 28° SW 19:27:15 20° S
Cosmos 44 3.8 19:22:43 10° NNW 19:27:32 43° NE 19:28:17 41° E
NOSS 3-2 (C) 4.4 19:24:14 10° SW 19:29:54 46° NW 19:36:09 10° NNE
ARGOS Delta rocket 3.7 19:27:04 10° NNE 19:32:00 74° E 19:36:37 10° S
Cosmos 2219 Rocket 4.4 19:28:17 10° NW 19:32:52 26° WSW 19:37:27 10° SSW
Cosmos 2034 Rocket 3.9 19:31:57 10° N 19:38:18 66° E 19:44:37 10° SSE
FALCON 9 R/B 4.5 19:32:40 10° W 19:40:57 82° S 19:57:36 31° ESE
Cosmos 2227 Rocket 3.8 19:35:55 10° SW 19:40:59 33° WNW 19:46:05 10° N
Cosmos 1891 Rocket 4.3 19:36:41 10° N 19:42:58 86° E 19:49:04 10° S
Cosmos 2237 Rocket 3.3 19:38:55 10° NW 19:44:12 44° WSW 19:49:30 10° S
SL-16 R/B 2.0 19:40:21 10° NNW 19:46:01 73° ENE 19:47:38 47° SE
SL-8 R/B 4.0 19:42:51 10° WSW 19:47:34 60° NNW 19:48:30 49° NNE
OAO 2 Rocket 3.7 19:45:12 10° WSW 19:49:44 48° S 19:49:44 48° S
Meteor 1-18 Rocket 4.3 19:46:51 10° NNW 19:52:26 73° W 19:57:57 10° S
USA 267 3.8 19:53:08 39° NE 19:53:50 40° NE 19:59:50 10° NNW
CZ-2D R/B 4.0 19:53:26 34° SSW 19:54:48 52° W 19:58:38 10° NNW
Cosmos 1816 Rocket 4.4 19:48:33 10° S 19:54:50 69° E 20:01:11 10° NNE
Cosmos 1452 Rocket 3.8 19:50:18 10° NNW 19:55:31 67° WSW 19:58:47 23° S
Cosmos 2297 Rocket 4.0 19:50:39 10° WSW 19:55:32 30° WNW 20:00:28 10° N
Cosmos 1048 Rocket 4.2 19:56:42 10° SSW 20:02:01 70° WNW 20:04:54 28° N
CENTAUR R/B 2.8 19:59:50 10° SW 20:05:42 62° NW 20:09:52 23° NNE
Resurs 01 Rocket 3.2 20:09:59 27° NNW 20:09:59 27° NNW 20:11:59 10° NNW
Cosmos 44 Rocket 4.4 20:19:42 10° NNW 20:23:04 42° NW 20:23:04 42° NW
Tsikada Rocket 4.5 20:19:23 10° SSW 20:25:41 61° W 20:32:03 10° N
Lacrosse 5 4.3 20:42:12 10° W 20:45:19 16° WSW 20:46:02 16° SW
